Flag for U.S.A. Weather past 2 weeks in Abilene, Texas, U.S.A.

Now
59 °F

Low clouds.


Feels Like: 57 °F
Forecast: 53 / 69 °F
Wind: 10 mph from Northwest

Location: Abilene Regional Airport

Current Time: Apr 27, 2015 at 10:55:37 AM

Latest Report: Apr 27, 2015 at 9:52 AM


Visibility: 10 mi

Pressure: 29.74 "Hg

Humidity: 84%

Dew point: 54 °F

Location of AbileneLocation

Historic Weather in Abilene — Graph

°F

Abilene temperature yesterday

Maximum temperature yesterday: 81 °F (at 12:52 PM)
Minimum temperature yesterday: 56 °F (at 4:52 AM)
Average temperature yesterday: 69 °F

Past Weeks' High & Low Weather Summary

 TemperatureHumidityPressure
High85 °F (Apr 25, 4:52 PM)100% (Apr 12, 10:52 PM)30.17 "Hg (Apr 12, 10:52 PM)
Low45 °F (Apr 15, 2:52 AM)17% (Apr 25, 5:52 PM)29.43 "Hg (Apr 26, 5:52 PM)
Average66 °F67%29.83 "Hg
* Reported Apr 12 8:52 AM — Apr 27 8:52 AM, Abilene, Weather by CustomWeather, © 2015

Note: Actual official high and low records may vary slightly from our data, if they occured in-between our weather recording intervals... More about our weather records

Advertising

Abilene weather history for previous 24 hours

 ConditionsComfort  
Time TempWeatherWind HumidityBarometerVisibility
8:52 AM
Mon, Apr 27
57 °FFog.14 mph90%29.72 "Hg6 mi
7:52 AM57 °FLow clouds.9 mph96%29.68 "Hg10 mi
7:01 AM58 °FFog.10 mph93%29.71 "Hg3 mi
5:52 AM59 °FLow clouds.14 mph90%29.63 "Hg10 mi
4:52 AM59 °FLow clouds.3 mph87%29.60 "Hg10 mi
3:52 AM59 °FPassing clouds.10 mph87%29.62 "Hg10 mi
2:52 AM59 °FMostly cloudy.15 mph84%29.62 "Hg10 mi
1:52 AM60 °FOvercast.20 mph80%29.67 "Hg10 mi
12:52 AM60 °FOvercast.18 mph86%29.65 "Hg10 mi
12:01 AM61 °FLight rain. Passing clouds.17 mph87%29.69 "Hg10 mi
10:52 PM
Sun, Apr 26
63 °FClear.10 mph68%29.61 "Hg10 mi
9:52 PM63 °FClear.17 mph73%29.52 "Hg10 mi
8:52 PM68 °FSunny.15 mph59%29.52 "Hg10 mi
7:52 PM71 °FSunny.16 mph53%29.49 "Hg10 mi
6:52 PM69 °FSunny.26 mph70%29.51 "Hg10 mi
5:52 PM78 °FSunny.17 mph46%29.43 "Hg10 mi
4:52 PM78 °FSunny.20 mph56%29.45 "Hg10 mi
3:52 PM80 °FPassing clouds.20 mph52%29.47 "Hg10 mi
2:52 PM81 °FScattered clouds.23 mph56%29.52 "Hg10 mi
1:52 PM80 °FSunny.17 mph56%29.55 "Hg10 mi
12:52 PM81 °FPassing clouds.15 mph58%29.59 "Hg10 mi
11:52 AM74 °FPartly sunny.6 mph69%29.64 "Hg10 mi
10:52 AM71 °FPassing clouds.12 mph66%29.67 "Hg10 mi
Weather by CustomWeather, © 2015

See weather overviewHow to use our weather pages